Location: Dunwoodie Heights
(40.9254°N, 73.8679°W)
Time: 02:55:50
(UTC+00:00)

Daily predictions for brighter satellites

Satellite Brightness Start Highest point End
(mag) Time Altitude Azimuth Time Altitude Azimuth Time Altitude Azimuth
Shenzhou-11 Module 3.7 00:01:06 10° W 00:02:40 29° W 00:02:40 29° W
ATLAS CENTAUR R/B 4.1 00:06:26 10° WNW 00:08:58 17° WSW 00:11:25 10° SSW
SJ-11-01 4.2 00:15:13 68° NNE 00:15:13 68° NNE 00:19:32 10° N
NOSS 3-3 (A) 4.5 00:11:14 10° NNW 00:18:48 68° NE 00:21:56 41° ESE
NOSS 3-3 (C) 4.5 00:11:20 10° NNW 00:18:54 67° NE 00:21:57 41° ESE
Cosmos 407 Rocket 3.9 00:22:26 10° NNW 00:27:37 61° WSW 00:31:50 15° S
ATLAS 3B R/B 3.2 00:21:36 10° S 00:26:32 40° SSE 00:26:32 40° SSE
Cosmos 1190 Rocket 4.2 00:24:29 10° NNW 00:29:47 69° WSW 00:32:14 32° S
NOSS 3-2 (C) 3.2 00:31:10 10° SW 00:36:51 88° NW 00:37:14 79° NNE
FALCON 9 R/B 3.2 00:22:13 10° WSW 00:37:25 48° S 00:38:26 45° SSE
CENTAUR R/B 2.4 00:37:18 10° SSW 00:42:27 72° S 00:42:27 72° S
Ariane Rocket 3.8 00:40:36 10° S 00:45:29 49° W 00:50:26 10° NNW
Centaur D AC-28 3.9 00:39:53 10° WSW 00:50:36 28° S 00:51:19 27° S
NOSS 3-2 (A) 4.2 00:48:04 10° WSW 00:53:34 46° NW 00:55:00 39° N
Haruka 4.5 00:50:47 10° WSW 00:53:22 31° SSW 00:53:22 31° SSW
Cosmos 1605 Rocket 4.3 00:56:28 10° SSW 01:02:43 65° W 01:04:05 52° NNW
Cosmos 2263 Rocket 4.4 01:16:56 10° W 01:20:58 20° NW 01:22:50 17° NNW
CENTAUR R/B 4.0 08:16:21 44° ENE 08:16:21 44° ENE 08:23:51 10° ESE
Cosmos 2263 Rocket 4.4 08:32:34 20° E 08:32:34 20° E 08:34:44 10° ESE
Cosmos 2322 Rocket 4.3 08:31:30 22° E 08:31:30 22° E 08:34:58 10° NE
ATLAS 2AS CENTAUR R/B 3.3 08:57:39 61° NNE 08:57:39 61° NNE 09:04:06 10° NNE
Cosmos 2360 Rocket 4.2 09:09:22 10° SSE 09:13:54 25° ESE 09:18:29 10° NE
Lacrosse 5 3.4 09:16:47 30° NE 09:16:47 30° NE 09:19:22 10° NE
SL-16 R/B 2.9 09:16:09 50° ENE 09:16:09 50° ENE 09:20:34 10° NNE
Cosmos 1980 Rocket 4.4 09:24:28 14° N 09:24:28 14° N 09:25:22 10° N
BREEZE-M DEB (TANK) 4.4 09:27:19 54° W 09:29:33 67° NNW 09:34:53 10° NE
Gbstr 26 Del rocket 4.3 09:35:01 60° NNW 09:35:06 61° NNW 09:42:50 10° NE
COSMO-SKYMED 1 4.0 09:34:19 10° SE 09:38:16 36° ENE 09:40:28 22° NNE
Meteor 1-16 Rocket 4.2 09:39:28 84° SSW 09:39:40 89° W 09:45:29 10° N
Cosmos 2181 Rocket 4.0 09:34:54 10° S 09:41:08 79° E 09:47:30 10° N
STARLINK 1043 4.5 09:49:19 48° ENE 09:49:19 48° ENE 09:52:24 10° NE
ATLAS 3B R/B 2.6 09:48:27 47° NW 09:50:41 87° SW 09:57:39 10° SSE
ALOS 3.2 09:47:32 10° NNE 09:52:03 47° E 09:56:33 10° S
STARLINK 1065 4.2 09:54:06 54° ENE 09:54:06 54° ENE 09:57:23 10° NE
BREEZE-M DEB (TANK) 4.5 09:54:30 42° N 09:54:58 44° NNE 10:02:35 10° ESE
Cosmos 2056 Rocket 3.7 09:53:22 29° N 09:56:12 72° ENE 10:01:34 10° SSE
Cosmos 2341 Rocket 3.9 09:54:30 34° NNW 09:57:13 64° W 10:03:19 10° S
Cosmos 158 Rocket 4.0 09:58:42 58° NNW 09:58:42 58° NNW 10:02:51 10° NNE
STARLINK 1063 3.9 09:58:52 61° NE 09:58:52 61° NE 10:02:21 10° NE
STARLINK-52 4.3 09:59:25 43° E 09:59:25 43° E 10:02:02 10° ESE
CZ-3 R/B 3.8 09:50:04 30° WSW 10:00:10 45° SSW 10:08:05 10° SE
NOSS 3-2 (C) 4.3 10:00:04 43° W 10:01:08 45° WSW 10:09:06 10° S
STARLINK 1064 3.7 10:03:38 68° NNE 10:03:38 68° NNE 10:07:18 10° NE
RESURS DK-1 3.1 10:04:57 42° N 10:04:57 42° N 10:07:49 10° NNE
CENTAUR R/B 3.3 10:03:36 38° WNW 10:06:39 54° WSW 10:15:05 10° S
STARLINK 1041 3.6 10:08:26 71° N 10:08:26 71° N 10:12:18 10° NE
USA 215 4.3 10:04:45 10° E 10:10:40 38° NNE 10:15:03 17° NNW
NOSS 3-4 (A) 4.1 10:12:39 34° NW 10:12:44 34° NW 10:18:29 10° NNE
NOSS 3-4 (C) 4.1 10:12:44 34° NW 10:12:49 34° NW 10:18:35 10° NNE
STARLINK 1038 3.5 10:13:12 69° NNW 10:13:12 69° NNW 10:17:15 10° NE
Cosmos 2263 Rocket 2.7 10:14:20 39° WSW 10:14:20 39° WSW 10:19:01 10° S
Cosmos 2322 Rocket 2.3 10:13:23 46° W 10:14:19 51° WNW 10:19:53 10° NNE
Cosmos 2218 Rocket 3.9 10:10:31 10° N 10:16:53 75° W 10:23:07 10° S
STARLINK 1046 3.5 10:18:00 63° NW 10:18:07 63° NW 10:22:14 10° NE
Cosmos 1959 Rocket 4.3 10:14:55 10° NNW 10:21:02 71° W 10:27:10 10° S
STARLINK 1039 3.6 10:22:47 56° WNW 10:23:05 58° NW 10:27:12 10° NE
Cosmos 1844 Rocket 3.4 10:18:30 10° NNW 10:24:01 52° ENE 10:29:32 10° SE
SKYMED 2 3.5 10:21:55 10° S 10:26:13 66° W 10:29:04 21° NNW
STARLINK 1045 3.7 10:27:34 49° WNW 10:28:05 54° NW 10:32:10 10° NE
Orbus 7S? 3.8 10:27:27 44° W 10:28:32 60° SW 10:35:54 10° SSE
Cosmos 1812 Rocket 4.5 10:24:56 10° SSE 10:29:10 51° E 10:33:27 10° NNE
CZ-4B DEB 4.1 10:25:32 10° NNE 10:31:06 87° WNW 10:36:36 10° SSW
Cosmos 1340 Rocket 3.8 10:29:23 10° S 10:33:07 46° E 10:36:53 10° NNE
Meteor 1-11 4.2 10:27:36 10° NNW 10:33:07 59° W 10:38:41 10° S
STARLINK 1050 3.9 10:32:28 43° WNW 10:33:09 48° NNW 10:37:12 10° NE
Cosmos 1300 2.7 10:30:51 10° S 10:34:39 82° E 10:38:29 10° N
Lacrosse 5 rocket 3.4 10:34:27 13° NNW 10:37:27 23° NNE 10:40:59 10° E
Cosmos 1452 Rocket 4.0 10:32:52 10° NNW 10:38:05 60° ENE 10:43:15 10° SSE
STARLINK 1055 4.0 10:37:16 38° WNW 10:38:10 44° NNW 10:42:09 10° NE
Cosmos 1900 4.4 10:38:22 26° NW 10:40:55 56° WSW 10:45:43 10° SSE
Cosmos 2366 rocket 4.1 10:35:04 10° NNW 10:41:12 51° W 10:47:16 10° SSW
FENGYUN 3A 3.6 10:36:51 10° N 10:42:10 60° WNW 10:47:30 10° SSW
Cosmos 2333 Rocket 3.3 10:36:52 10° S 10:42:23 49° ESE 10:47:55 10° NE
STARLINK 1022 4.1 10:42:01 33° WNW 10:43:08 41° NNW 10:47:04 10° NE
STARLINK 1042 4.2 10:46:45 30° WNW 10:48:05 38° NNW 10:51:59 10° NE
H-2A R/B 4.1 10:44:29 10° NNE 10:48:11 41° E 10:51:49 10° S
ATLAS 2AS CENTAUR R/B 4.0 10:45:08 21° WNW 10:48:13 26° NW 10:54:40 10° NNE
PSLV R/B 4.5 10:47:31 10° N 10:50:42 28° WNW 10:50:42 28° WNW
BREEZE-M DEB (TANK) 4.3 10:48:09 12° SW 10:51:10 70° SE 11:00:21 10° ENE
STARLINK 1056 4.3 10:51:37 26° WNW 10:53:11 36° NNW 10:57:02 10° NE
Cosmos 1076 Rocket 3.7 10:50:54 10° N 10:55:18 74° E 10:59:38 10° SSE
Cosmos 2360 Rocket 2.5 10:52:11 10° SW 10:57:36 45° WNW 11:03:02 10° NNE
Lacrosse 5 3.2 10:56:00 19° NW 10:57:51 23° NNW 11:01:52 10° NNE
STARLINK 1054 4.4 10:56:20 23° WNW 10:58:07 34° NNW 11:01:56 10° NE
Cosmos 2219 Rocket 2.7 10:53:40 10° S 10:59:15 65° ESE 11:04:54 10° NNE
SL-16 R/B 3.4 10:58:05 19° WNW 10:59:31 21° NW 11:03:45 10° N
Cosmos 1420 Rocket 4.0 10:56:07 10° NNW 11:01:22 63° WSW 11:06:36 10° S
Alouette 2 Rocket 3.2 10:58:02 10° SSW 11:02:13 63° WNW 11:05:47 10° N
STARLINK 1062 4.5 11:01:08 21° WNW 11:03:09 32° NNW 11:06:54 10° NE
Cosmos 2058 Rocket 4.4 11:04:52 18° WNW 11:04:52 18° WNW 11:07:51 10° NNW
Cosmos 2333 4.2 11:00:46 10° SSW 11:06:33 76° WNW 11:12:21 10° NNE
Cosmos 2322 3.7 11:01:59 10° SSW 11:07:36 65° WNW 11:13:15 10° NNE
NOAA 6 4.1 11:02:36 10° N 11:07:42 57° WNW 11:12:45 10° SSW
Okean O Rocket 1.8 11:05:26 10° N 11:09:44 50° WNW 11:13:59 10° SSW
Cosmos 2058 2.9 11:06:56 10° N 11:11:10 85° W 11:15:22 10° S
Cosmos 1892 3.1 11:10:21 10° N 11:14:08 65° E 11:17:52 10° SSE
COSMO-SKYMED 1 3.9 11:11:23 10° SW 11:14:31 19° W 11:17:41 10° NW
CZ-4B R/B 3.2 11:09:38 10° N 11:15:00 57° WNW 11:20:14 10° SSW
Cosmos 2084 Rocket 3.5 11:11:06 10° SW 11:15:25 61° NW 11:19:49 10° NNE
Cosmos 1408 4.4 11:13:47 10° N 11:17:12 34° ENE 11:20:35 10° SE
Cosmos 1844 3.6 11:13:00 10° NNW 11:18:34 71° WSW 11:24:04 10° SSE
Cosmos 1174 4.1 11:19:09 10° SW 11:22:48 35° WNW 11:25:56 10° NNE
Okean-O 4.2 11:19:04 10° NNE 11:23:15 40° E 11:27:24 10° SSE
BREEZE M DEB (TANK) 4.4 11:20:45 12° WNW 11:23:17 30° N 11:29:38 10° ENE
Cosmos 1825 4.3 11:20:38 10° NNE 11:23:58 29° ENE 11:27:17 10° SE
Cosmos 482 Debris 2.8 11:22:50 14° WSW 11:24:16 38° NW 11:25:59 10° NE
AQUARIUS 4.2 11:22:18 10° NNE 11:26:50 90° W 11:31:19 10° SSW
Helios 1A Rocket 3.3 11:24:11 10° N 11:28:05 41° WNW 11:31:58 10° SW
ALOS 3.6 11:25:57 10° NNW 11:29:06 18° WNW 11:32:15 10° WSW
ADEOS Rocket 2.9 11:24:09 10° S 11:29:34 61° W 11:35:21 10° NNW
Cosmos 1048 Rocket 4.1 11:28:29 10° SW 11:33:37 52° WNW 11:38:42 10° N
In-Cosmos 22 Rocket 4.2 11:29:00 10° NNW 11:34:12 56° W 11:39:23 10° S
CZ-4 R/B 3.9 11:30:33 10° NE 11:34:13 29° E 11:37:49 10° SSE
COSMOS 2428 2.7 11:32:49 10° SW 11:38:29 64° WNW 11:44:11 10° NNE
Cosmos 1437 4.4 11:36:55 10° NW 11:38:42 15° W 11:40:30 10° SW
Cosmos 494 Rocket 4.0 11:34:48 10° SSW 11:39:57 82° WNW 11:45:08 10° NNE
ATLAS 3B R/B 4.2 11:36:43 10° WNW 11:40:27 15° WSW 11:44:16 10° SW
Cosmos 371 Rocket 3.3 11:36:03 10° NNW 11:40:54 77° WSW 11:45:41 10° SSE
Cosmos 332 Rocket 3.9 11:36:35 10° NNW 11:41:25 83° ENE 11:46:14 10° SSE
